Wind_Speed
14 16 18 19 21 22 23 25 27 28 30 31 32 33 35 36 37 38 38 39 40 40 39 38 38 37 37 39 39 38 38 40 42 42 43 44 46 47 49 50 51 52 54 56
12 15 17 19 20 22 23 24 26 28 29 30 32 33 33 34 34 36 37 38 38 38 37 36 35 35 36 37 37 38 39 39 39 41 43 44 45 46 47 48 50 52 53 56
9 12 14 18 19 21 22 23 24 26 26 27 28 29 29 30 31 31 32 32 33 33 33 32 31 31 31 32 32 33 34 34 36 37 38 40 42 44 46 48 50 52 54 56
6 9 11 13 15 17 19 22 23 24 25 25 25 25 24 25 26 27 27 28 28 28 27 27 29 29 29 28 29 30 32 33 35 36 38 40 42 44 46 47 49 51 53 54
7 7 9 9 11 13 16 18 20 21 22 22 22 22 21 21 22 22 22 22 22 23 23 24 25 26 27 28 29 30 32 34 36 37 39 40 42 43 45 46 48 49 51 51
8 7 8 9 10 12 14 15 16 16 17 17 18 18 18 17 17 18 19 19 20 21 22 22 23 24 26 27 28 29 31 32 34 35 36 38 39 41 42 44 45 46 46 47
10 9 8 8 9 10 11 12 12 12 13 13 13 13 13 14 14 15 16 17 18 18 19 20 21 23 24 25 26 27 29 30 32 33 34 35 36 38 39 40 41 41 41 41
12 11 10 10 9 9 9 9 9 9 10 11 11 11 11 12 13 13 14 15 16 17 18 19 20 22 23 23 25 26 27 28 29 30 31 33 34 35 35 35 36 36 36 35
13 12 11 11 10 9 8 8 7 7 7 8 8 9 10 11 12 13 13 13 14 15 17 18 20 21 21 22 22 23 24 25 26 28 29 30 30 30 31 31 31 31 30 29
14 13 12 12 11 9 8 7 7 6 7 7 8 9 9 10 10 11 12 12 14 15 16 18 19 19 19 19 19 20 22 23 24 25 26 27 27 27 27 27 26 25 24 22
15 14 13 12 11 9 9 8 7 7 7 7 7 6 7 8 8 9 10 11 12 14 15 16 17 17 17 17 18 19 20 21 21 23 23 23 23 23 23 21 21 20 19 17
15 15 14 13 11 10 8 7 7 6 6 5 5 5 6 7 8 9 10 11 13 14 15 15 16 16 16 16 17 18 18 19 20 20 20 20 20 20 19 18 18 17 15 14
16 15 14 13 11 10 8 7 6 6 5 5 5 6 7 7 8 9 11 12 13 14 14 15 14 14 15 15 16 16 16 17 17 17 17 17 17 17 16 15 15 14 13 11
16 16 15 13 11 10 9 7 6 6 6 6 6 7 7 8 9 11 12 13 13 13 14 13 13 14 14 14 14 15 15 16 16 15 15 15 15 15 15 14 13 11 10 10
17 16 15 13 11 10 8 7 6 6 6 6 7 8 9 10 10 12 12 13 13 13 13 14 14 14 13 13 14 14 14 14 13 13 13 13 13 13 13 12 11 10 9 9
17 17 15 13 11 10 8 7 6 6 6 7 8 9 10 11 12 12 12 13 14 14 14 14 14 13 13 13 13 12 12 12 11 11 11 12 12 12 12 11 10 10 9 9
17 17 16 14 12 10 8 7 6 6 7 8 9 11 12 12 13 13 13 14 14 15 15 14 13 12 11 11 11 10 10 10 9 10 10 10 11 10 10 10 9 9 9 9
17 17 16 14 12 10 8 7 6 6 7 8 9 11 12 13 14 14 15 15 15 15 15 14 13 11 10 9 8 8 8 8 8 8 9 9 9 9 8 8 8 8 9 9
17 17 16 15 13 10 8 7 6 6 7 8 9 11 13 14 15 15 16 16 16 15 15 15 13 11 9 8 7 7 7 7 7 7 8 8 8 7 7 7 7 8 8 8
17 17 16 15 13 10 8 7 7 6 7 8 9 11 13 14 16 16 16 17 16 16 16 15 14 12 9 8 7 7 6 7 7 7 7 7 6 6 6 6 6 6 7 7
16 16 16 14 13 11 9 7 7 6 7 8 9 11 12 14 16 16 17 17 17 16 16 15 14 12 11 9 8 7 7 6 6 6 6 6 5 5 5 5 5 5 5 6
15 15 15 14 12 10 9 7 6 6 7 7 9 10 12 14 15 16 17 17 17 17 16 16 15 14 12 10 9 8 7 7 6 6 6 5 5 4 4 4 4 4 4 5
15 15 14 13 12 10 9 7 6 6 6 7 8 9 11 13 15 16 17 17 17 16 16 16 16 15 14 12 11 9 8 7 7 6 5 5 5 4 4 4 3 4 4 4
14 14 13 12 11 10 8 7 6 5 5 6 7 8 10 12 14 16 17 17 17 16 16 17 17 16 15 14 13 11 9 8 7 6 5 5 5 4 4 4 4 4 4 5
13 13 12 12 11 9 8 7 6 5 5 5 6 7 9 10 12 14 16 16 16 16 16 16 16 17 17 16 15 13 12 10 8 7 7 6 5 5 5 5 6 6 6 7
13 13 12 11 10 9 8 7 6 5 5 5 5 6 7 9 11 12 14 16 16 16 16 16 16 16 17 17 16 15 14 13 11 10 9 9 8 8 8 8 8 8 8 9
13 12 11 11 10 9 8 7 6 6 5 5 5 5 6 7 9 10 12 14 15 16 16 16 16 16 16 16 16 15 15 15 14 13 12 11 11 11 11 11 10 10 10 10
Wind_Direction
229 234 236 239 241 245 247 247 249 251 254 256 257 257 259 261 264 265 267 269 269 271 275 275 272 274 274 274 274 274 274 274 275 276 278 281 282 284 285 285 286 286 286 287
243 245 249 250 251 252 253 254 254 256 260 262 262 262 265 267 269 270 271 272 272 274 278 278 276 276 277 276 276 276 277 279 281 282 282 283 283 284 284 285 285 286 286 287
262 256 256 256 257 257 257 258 260 261 263 264 266 268 270 270 271 274 274 274 275 276 276 275 277 278 278 278 276 277 277 280 283 284 284 284 285 285 285 286 287 288 289 289
286 275 267 267 261 260 261 262 264 264 265 266 268 268 270 269 270 272 272 274 275 276 277 277 279 279 278 280 280 280 281 283 284 286 287 288 288 288 288 289 290 291 292 292
316 298 287 280 274 268 268 268 269 271 271 272 271 271 272 272 273 273 276 277 276 277 277 277 280 280 279 281 283 284 284 285 287 289 290 291 291 291 292 293 294 294 294 295
340 322 307 296 285 281 277 274 275 275 276 277 274 274 273 271 270 271 274 273 276 278 277 280 281 280 281 284 285 286 287 288 290 292 293 294 295 296 297 298 299 299 299 300
354 344 332 318 306 297 288 285 280 277 276 274 273 271 270 270 269 270 272 274 276 277 278 281 283 285 287 289 289 291 292 293 294 296 297 299 300 300 301 302 303 303 303 303
3 358 348 338 327 315 304 295 290 286 281 278 276 275 274 274 273 273 275 278 279 281 284 287 290 291 293 293 294 295 297 298 299 301 302 303 304 305 306 307 307 308 308 308
8 3 356 349 339 329 320 311 302 296 292 283 279 278 278 278 280 282 283 286 287 288 291 294 296 298 297 297 299 300 301 302 304 305 306 307 309 310 311 312 312 312 313 313
8 5 0 354 347 339 333 326 319 312 304 298 292 288 285 286 287 289 291 291 292 294 297 299 301 301 302 302 303 306 307 308 310 311 312 314 316 316 316 316 318 319 321 321
7 5 2 359 352 346 340 333 326 319 313 310 307 303 302 302 302 302 302 304 304 304 305 305 305 305 306 306 308 310 312 314 316 318 320 321 323 324 324 325 327 329 332 335
6 4 2 359 355 349 343 338 336 334 334 335 333 328 324 321 320 319 316 313 311 310 309 308 307 307 307 309 312 314 316 318 321 323 326 327 330 331 332 333 337 343 349 355
8 5 1 357 355 353 347 345 345 345 346 346 344 340 336 332 330 327 323 320 317 315 313 311 310 309 309 311 314 315 317 320 324 327 331 334 338 340 341 344 348 355 3 12
8 5 2 358 356 355 354 353 353 356 356 354 352 350 347 342 337 333 330 327 325 323 321 319 316 314 313 315 317 317 318 320 325 329 334 340 346 349 352 356 1 8 17 28
7 6 4 1 358 357 357 356 357 0 3 2 360 358 354 351 345 340 337 334 333 329 324 320 316 314 312 314 318 320 321 322 327 332 338 346 353 357 1 6 13 21 31 40
6 6 6 3 360 358 358 356 356 0 3 5 5 3 359 354 349 346 344 341 337 333 328 323 319 315 312 313 315 319 322 325 330 337 345 353 359 4 7 14 24 34 44 54
4 6 7 5 2 1 360 358 359 2 4 6 7 6 2 358 355 353 350 346 342 338 334 330 325 320 317 317 318 321 325 329 336 343 349 356 2 8 13 23 33 43 53 62
3 6 7 6 3 3 3 2 3 4 5 7 7 6 5 4 2 359 356 353 350 347 346 343 338 330 324 322 322 327 331 336 343 348 352 358 4 11 20 29 40 49 58 66
1 4 6 6 5 5 5 3 2 1 3 6 7 7 7 6 4 2 0 358 356 356 355 354 352 347 342 337 336 338 342 343 346 351 356 2 9 17 25 35 45 54 62 68
359 2 4 5 5 5 4 2 359 359 2 4 6 8 8 7 7 5 3 3 3 2 1 1 3 3 358 354 353 353 353 354 354 357 1 6 11 19 28 39 49 58 62 65
355 359 2 4 4 4 2 359 356 357 360 3 6 8 8 7 8 9 9 9 9 7 7 9 11 11 10 9 8 5 2 2 3 3 5 8 12 20 29 40 48 56 61 63
351 355 359 1 1 2 0 356 354 354 357 1 6 7 7 7 10 12 12 12 12 13 16 18 17 17 17 18 16 13 10 9 8 8 11 14 20 25 32 40 49 56 60 61
345 351 355 357 358 358 356 353 349 349 353 358 2 4 5 8 11 13 14 14 14 17 20 21 20 20 21 21 19 15 13 12 13 14 16 20 26 31 36 44 53 59 64 67
337 344 349 351 353 353 351 347 343 343 346 353 357 359 3 8 11 14 15 15 15 18 21 22 24 25 25 24 22 21 20 20 21 22 24 28 35 41 47 55 61 68 72 73
328 336 340 344 346 346 343 340 335 334 336 343 349 353 359 5 9 13 16 16 17 20 23 24 25 27 27 27 28 29 30 32 34 36 39 44 51 57 64 71 74 78 82 81
317 326 331 335 337 338 335 330 324 321 322 328 336 344 352 359 5 12 16 17 19 22 26 27 27 28 29 31 34 36 39 43 46 49 54 60 65 69 74 78 81 84 85 85
305 313 320 324 327 328 326 321 314 309 307 311 321 330 339 350 359 8 14 17 19 23 27 29 29 30 31 34 36 39 42 46 51 55 60 65 70 74 76 79 82 83 84 84
Height
5744 5745 5747 5748 5749 5751 5752 5753 5755 5756 5757 5758 5759 5760 5760 5761 5762 5762 5763 5763 5764 5764 5764 5764 5764 5763 5762 5762 5760 5759 5758 5756 5755 5753 5752 5749 5747 5744 5742 5739 5735 5731 5728 5724
5741 5742 5743 5744 5745 5746 5748 5748 5749 5750 5751 5751 5751 5752 5753 5753 5754 5754 5755 5755 5755 5755 5755 5755 5754 5753 5753 5752 5751 5749 5748 5746 5744 5742 5740 5738 5735 5733 5729 5726 5722 5719 5714 5711
5739 5739 5740 5741 5741 5742 5742 5743 5744 5744 5745 5744 5745 5745 5745 5746 5746 5746 5747 5747 5747 5746 5746 5746 5745 5744 5744 5742 5741 5739 5738 5736 5734 5731 5729 5726 5723 5721 5717 5713 5710 5705 5701 5697
5736 5737 5737 5739 5736 5737 5737 5737 5737 5738 5738 5738 5738 5738 5738 5739 5739 5739 5739 5739 5739 5738 5738 5737 5736 5736 5734 5733 5732 5730 5728 5726 5724 5721 5718 5715 5712 5709 5705 5701 5697 5692 5688 5683
5734 5733 5733 5733 5732 5732 5732 5732 5732 5732 5732 5732 5732 5732 5732 5732 5732 5732 5732 5732 5731 5731 5730 5729 5728 5727 5726 5725 5723 5721 5719 5717 5714 5711 5708 5705 5702 5698 5694 5689 5684 5680 5674 5669
5732 5731 5730 5731 5729 5728 5729 5728 5727 5727 5726 5726 5726 5727 5727 5726 5726 5726 5726 5726 5725 5724 5724 5723 5721 5720 5719 5717 5715 5713 5711 5708 5705 5702 5699 5696 5692 5688 5683 5678 5673 5667 5662 5656
5731 5729 5728 5727 5726 5725 5726 5725 5723 5722 5722 5722 5721 5722 5722 5721 5721 5721 5721 5720 5720 5719 5718 5716 5715 5714 5712 5710 5708 5705 5703 5700 5697 5694 5690 5687 5682 5678 5673 5668 5662 5657 5651 5646
5730 5728 5729 5725 5723 5723 5722 5720 5719 5718 5718 5718 5717 5717 5717 5717 5717 5716 5716 5715 5714 5713 5712 5710 5709 5707 5705 5703 5701 5698 5695 5692 5689 5686 5682 5678 5674 5669 5664 5659 5653 5648 5642 5637
5731 5730 5726 5723 5721 5720 5718 5717 5716 5716 5715 5715 5715 5714 5714 5713 5713 5712 5711 5710 5709 5708 5707 5705 5703 5701 5699 5697 5694 5692 5689 5686 5683 5679 5675 5671 5667 5661 5656 5651 5646 5641 5636 5630
5729 5727 5724 5722 5720 5718 5717 5715 5715 5714 5713 5713 5712 5711 5711 5710 5709 5708 5707 5706 5705 5703 5702 5700 5698 5696 5693 5691 5688 5686 5683 5680 5677 5673 5669 5665 5660 5655 5651 5646 5641 5636 5631 5626
5729 5727 5724 5721 5719 5717 5715 5714 5713 5712 5711 5710 5710 5709 5708 5707 5706 5705 5704 5703 5701 5699 5697 5695 5693 5691 5688 5686 5684 5681 5678 5675 5671 5668 5664 5660 5655 5651 5646 5641 5637 5632 5628 5623
5730 5727 5724 5721 5719 5716 5715 5713 5712 5711 5710 5709 5708 5707 5706 5705 5704 5702 5701 5699 5698 5696 5693 5691 5689 5686 5684 5682 5679 5677 5674 5671 5667 5664 5660 5656 5652 5648 5643 5639 5635 5631 5627 5623
5729 5726 5723 5720 5718 5716 5714 5712 5711 5710 5709 5708 5707 5706 5705 5703 5702 5700 5698 5696 5694 5692 5690 5687 5685 5682 5680 5678 5675 5673 5670 5667 5664 5661 5658 5654 5650 5646 5642 5638 5634 5630 5627 5624
5729 5726 5723 5720 5717 5715 5713 5712 5711 5709 5708 5707 5706 5705 5703 5702 5700 5698 5696 5694 5691 5689 5686 5684 5681 5679 5676 5674 5672 5669 5667 5664 5661 5658 5655 5652 5649 5645 5641 5638 5634 5631 5628 5626
5729 5726 5723 5720 5717 5715 5713 5712 5710 5709 5708 5707 5705 5704 5702 5701 5699 5696 5694 5691 5688 5686 5683 5680 5678 5675 5673 5671 5669 5666 5664 5661 5659 5656 5654 5651 5648 5645 5641 5638 5635 5633 5630 5628
5729 5726 5722 5719 5717 5715 5713 5711 5710 5709 5708 5707 5705 5703 5701 5699 5697 5694 5692 5689 5686 5683 5680 5677 5674 5672 5669 5667 5665 5663 5661 5659 5657 5655 5653 5650 5647 5645 5642 5639 5637 5634 5632 5630
5729 5726 5722 5719 5717 5714 5713 5711 5710 5709 5708 5706 5705 5703 5701 5698 5696 5693 5690 5687 5684 5680 5677 5673 5670 5668 5666 5664 5663 5661 5659 5657 5655 5654 5652 5650 5647 5645 5643 5641 5639 5637 5635 5633
5729 5725 5722 5719 5716 5714 5712 5711 5710 5709 5708 5706 5705 5703 5700 5698 5695 5692 5689 5686 5682 5679 5675 5671 5667 5665 5663 5662 5660 5659 5657 5656 5655 5653 5651 5650 5648 5646 5644 5642 5640 5639 5637 5636
5728 5725 5722 5719 5716 5714 5712 5711 5710 5709 5708 5706 5705 5703 5700 5698 5695 5692 5688 5685 5681 5678 5674 5670 5666 5663 5661 5660 5659 5658 5656 5655 5654 5653 5651 5650 5648 5647 5645 5644 5642 5641 5640 5639
5728 5725 5721 5719 5716 5714 5712 5711 5710 5709 5708 5706 5705 5703 5700 5698 5695 5692 5688 5684 5681 5677 5673 5669 5666 5663 5661 5659 5658 5657 5656 5655 5654 5653 5651 5650 5649 5648 5646 5645 5644 5643 5642 5641
5727 5724 5721 5718 5716 5714 5712 5711 5710 5709 5708 5706 5705 5703 5701 5698 5695 5692 5688 5685 5681 5677 5674 5670 5666 5664 5661 5659 5658 5657 5655 5654 5653 5652 5651 5650 5649 5648 5647 5646 5645 5645 5644 5643
5726 5723 5721 5718 5716 5714 5712 5711 5710 5709 5708 5706 5705 5703 5701 5699 5696 5693 5689 5686 5682 5679 5675 5671 5668 5665 5662 5660 5659 5657 5656 5655 5654 5653 5652 5651 5650 5649 5648 5647 5646 5646 5645 5644
5724 5722 5720 5717 5715 5713 5712 5710 5709 5708 5707 5706 5705 5703 5702 5699 5697 5694 5691 5687 5684 5680 5677 5673 5670 5667 5664 5662 5660 5658 5657 5655 5654 5653 5652 5651 5650 5649 5649 5648 5647 5647 5646 5646
5723 5721 5719 5717 5715 5713 5711 5710 5709 5708 5707 5706 5705 5704 5702 5700 5698 5695 5692 5689 5685 5682 5679 5676 5672 5669 5666 5663 5661 5659 5657 5656 5655 5653 5652 5651 5651 5650 5649 5649 5648 5648 5648 5647
5721 5719 5717 5715 5714 5712 5710 5709 5708 5708 5707 5706 5705 5704 5702 5701 5699 5696 5694 5691 5688 5684 5681 5678 5675 5672 5669 5666 5663 5661 5659 5657 5656 5654 5653 5652 5652 5651 5650 5650 5650 5650 5649 5649
5718 5717 5715 5714 5712 5711 5709 5708 5708 5707 5706 5706 5705 5704 5703 5701 5700 5698 5695 5693 5690 5687 5684 5681 5678 5675 5672 5669 5666 5664 5661 5659 5658 5656 5655 5654 5654 5653 5653 5652 5652 5652 5652 5652
5715 5714 5713 5712 5710 5709 5708 5707 5706 5706 5705 5705 5704 5704 5703 5702 5700 5699 5697 5695 5692 5689 5686 5683 5681 5678 5675 5672 5670 5667 5665 5663 5661 5660 5658 5657 5657 5656 5656 5656 5655 5655 5655 5655